Regional Weather Roundup
Issued by NWS

Home | Current Version | Previous Version | Text Only | Print | Product List | Glossary On
Versions: 1 2 3 4 5 6 7 8 9 10 11 12 13 14 15 16 17 18 19 20 21 22 23 24 25 26 27 28 29 30 31 32 33 34 35 36 37 38 39 40 41 42 43 44 45 46 47 48 49 50
000
ASUS43 KLMK 241110
RWRKY
KENTUCKY REGIONAL WEATHER ROUNDUP
NATIONAL WEATHER SERVICE LOUISVILLE KY
700 AM EDT FRI MAR 24 2017

NOTE "FAIR" INDICATES FEW OR NO CLOUDS BELOW 12,000 FEET
WITH NO SIGNIFICANT WEATHER AND/OR OBSTRUCTIONS TO VISIBILITY.

KYZ001>023-026-027-061>063-070>075-241200-
WESTERN AND SOUTH CENTRAL KENTUCKY

CITY           SKY/WX    TMP DP  RH WIND       PRES   REMARKS
PADUCAH        CLEAR     64  54  69 S13G22    30.08R
HENDERSON      CLEAR     59  48  67 S15G21    30.08R
OWENSBORO      CLEAR     57  49  74 S14       30.12R
HOPKINSVILLE   CLEAR     61  52  73 S12       30.15R
BOWLING GREEN  PTCLDY    59  45  59 S17G24    30.19F
GLASGOW        PTCLDY    55  42  60 S9        30.21R
$$

KYZ024-025-028>034-038-045-046-053-241200-
NORTH CENTRAL KENTUCKY

CITY           SKY/WX    TMP DP  RH WIND       PRES   REMARKS
LOUISVILLE/SDF PTCLDY    58  40  51 S15       30.16R
LOUISVILLE/LOU CLEAR     58  41  53 S10G17    30.17R
FORT KNOX      CLEAR     56  43  62 S15       30.15R
$$

KYZ035>037-039>044-047>052-055>060-089>105-241200-
NORTHEAST KENTUCKY

CITY           SKY/WX    TMP DP  RH WIND       PRES   REMARKS
LEXINGTON      CLEAR     53  39  59 S13       30.21R
COVINGTON      PTCLDY    52  41  66 S12       30.15R
FRANKFORT      CLEAR     54  39  57 S7        30.19R
$$

KYZ054-064>069-076>088-106>120-241200-
SOUTHEAST KENTUCKY

CITY           SKY/WX    TMP DP  RH WIND       PRES   REMARKS
JACKSON        PTCLDY    53  39  59 VRB3      30.26R
LONDON         CLEAR     56  37  49 S9        30.27R
SOMERSET       CLEAR     54  36  50 S9        30.28R
MIDDLESBORO    PTCLDY    48  36  61 CALM      30.35R
MONTICELLO     MOSUNNY   56  41  57 SE7       30.28R
$$




USA.gov is the U.S. government's official web portal to all federal, state and local government web resources and services.